This is the latest recevied weather packets stored in our database for station/object K7SFN. If no packets are shown the sender has not sent any weather packets the latest 10 day(s).
| Time | Temp. | Humidity | Pressure | Rain* | Wind** | Luminosity | Snow |
|---|---|---|---|---|---|---|---|
| 1777855204 | 13.89° C | 50% | 1011.8 hPa | 0 mm | - | - | - |
| 1777852504 | 13.33° C | 57% | 1012.7 hPa | 0 mm | - | - | - |
| 1777852204 | 13.33° C | 57% | 1012.7 hPa | 0 mm | - | - | - |
| 1777851605 | 13.33° C | 61% | 1012.7 hPa | 0 mm | - | - | - |
| 1777849804 | 11.67° C | 66% | 1014.2 hPa | 0 mm | - | - | - |
| 1777848605 | 12.22° C | 65% | 1014.2 hPa | 0 mm | - | - | - |
| 1777848005 | 12.22° C | 66% | 1013.9 hPa | 0 mm | - | - | - |
| 1777845304 | 13.33° C | 60% | 1014.7 hPa | 0 mm | - | - | - |
| 1777844105 | 17.78° C | 44% | 1013.2 hPa | 0 mm | - | - | - |
| 1777843805 | 19.44° C | 41% | 1011.9 hPa | 0 mm | - | - | - |
| 1777843204 | 21.11° C | 26% | 1010.1 hPa | 0 mm | - | - | - |
| 1777838104 | 21.11° C | 32% | 1011.4 hPa | 0 mm | - | - | - |
| 1777837504 | 21.11° C | 32% | 1011.5 hPa | 0 mm | - | - | - |
| 1777833904 | 20° C | 38% | 1012.7 hPa | 0 mm | - | - | - |
| 1777827305 | 15.56° C | 63% | 1013.8 hPa | 0 mm | - | - | - |
| 1777826105 | 14.44° C | 63% | 1013.9 hPa | 0 mm | - | - | - |
| 1777819804 | 10.56° C | 80% | 1014.5 hPa | 0 mm | - | - | - |
| 1777818305 | 9.44° C | 85% | 1014.5 hPa | 0 mm | - | - | - |
| 1777814104 | 7.78° C | 89% | 1014.3 hPa | 0 mm | - | - | - |
| 1777812904 | 7.78° C | 89% | 1014.3 hPa | 0 mm | - | - | - |
| 1777812004 | 7.78° C | 90% | 1014.3 hPa | 0 mm | - | - | - |
| 1777811404 | 7.78° C | 90% | 1014.5 hPa | 0 mm | - | - | - |
| 1777808404 | 8.33° C | 87% | 1014.7 hPa | 0 mm | - | - | - |
| 1777806605 | 8.33° C | 86% | 1014.8 hPa | 0 mm | - | - | - |
| 1777804205 | 9.44° C | 86% | 1015 hPa | 0 mm | - | - | - |
* Rain latest hour (hover to see other rain measurements)
** Current wind speed in m/s (hover to see current wind gust speed)